TimeMDT,TemperatureF,Dew PointF,Humidity,Sea Level PressureIn,VisibilityMPH,Wind Direction,Wind SpeedMPH,Gust SpeedMPH,PrecipitationIn,Events,Conditions,WindDirDegrees,DateUTC
12:53 AM,70.0,61.0,73,29.93,10.0,NNW,5.8,-,N/A,,Clear,330,2013-09-01 06:53:00
1:53 AM,69.1,62.1,78,29.94,10.0,North,5.8,-,N/A,,Clear,10,2013-09-01 07:53:00
2:53 AM,66.9,61.0,81,29.94,10.0,NNW,4.6,-,N/A,,Clear,340,2013-09-01 08:53:00
3:53 AM,64.9,59.0,81,29.94,10.0,North,8.1,-,N/A,,Clear,360,2013-09-01 09:53:00
4:53 AM,62.1,57.0,84,29.97,10.0,North,4.6,-,N/A,,Clear,360,2013-09-01 10:53:00
5:53 AM,60.1,54.0,80,30.02,10.0,North,5.8,-,N/A,,Clear,10,2013-09-01 11:53:00
6:53 AM,60.1,54.0,80,30.07,10.0,North,5.8,-,N/A,,Clear,360,2013-09-01 12:53:00
7:53 AM,64.0,54.0,70,30.09,10.0,North,5.8,-,N/A,,Clear,360,2013-09-01 13:53:00
8:53 AM,71.1,52.0,51,30.09,10.0,East,10.4,-,N/A,,Clear,80,2013-09-01 14:53:00
9:53 AM,75.0,48.0,38,30.09,10.0,ENE,9.2,-,N/A,,Clear,70,2013-09-01 15:53:00
10:53 AM,77.0,46.9,34,30.09,10.0,NE,9.2,-,N/A,,Clear,40,2013-09-01 16:53:00
11:53 AM,80.1,46.0,30,30.08,10.0,Calm,Calm,-,N/A,,Clear,0,2013-09-01 17:53:00
12:53 PM,81.0,43.0,26,30.06,10.0,Variable,3.5,-,N/A,,Clear,0,2013-09-01 18:53:00
1:53 PM,82.9,45.0,26,30.05,10.0,East,8.1,-,N/A,,Clear,80,2013-09-01 19:53:00
2:53 PM,84.0,45.0,25,30.02,10.0,North,3.5,-,N/A,,Clear,10,2013-09-01 20:53:00
3:53 PM,86.0,44.1,23,30.01,10.0,Variable,3.5,-,N/A,,Clear,0,2013-09-01 21:53:00
4:53 PM,84.9,43.0,23,30.01,10.0,ENE,4.6,-,N/A,,Clear,70,2013-09-01 22:53:00
5:53 PM,82.9,44.1,25,30.01,10.0,Variable,4.6,-,N/A,,Clear,0,2013-09-01 23:53:00
6:53 PM,78.1,48.0,35,30.03,10.0,East,4.6,-,N/A,,Clear,100,2013-09-02 00:53:00
7:53 PM,69.1,53.1,57,30.04,10.0,ESE,4.6,-,N/A,,Clear,120,2013-09-02 01:53:00
8:53 PM,64.9,51.1,61,30.06,10.0,SSE,3.5,-,N/A,,Clear,160,2013-09-02 02:53:00
9:53 PM,63.0,51.1,65,30.06,10.0,South,3.5,-,N/A,,Clear,170,2013-09-02 03:53:00
10:53 PM,60.1,48.9,67,30.07,10.0,ESE,3.5,-,N/A,,Clear,120,2013-09-02 04:53:00
11:53 PM,59.0,50.0,72,30.07,10.0,SE,5.8,-,N/A,,Clear,140,2013-09-02 05:53:00